Location: Cold Norton
(51.6667°N, 0.6667°E)
Time: 07:34:02
(UTC+00:00)

Cosmos 407 Rocket - Pass Details

Date: 18 November 2025
Orbit: 740 x 780 km, 74.0° (Epoch: 12 December)

Event Time Altitude Azimuth Distance (km) Brightness Sun altitude
Rises 18:05:05 0° 214° (SW) 3,204 7.4 -18.5°
Reaches altitude 10° 18:07:29 10° 218° (SW) 2,277 6.6 -18.9°
Maximum altitude 18:12:35 61° 299° (WNW) 853 3.9 -19.7°
Enters shadow 18:17:08 13° 18° (NNE) 2,068 5.5 -20.4°
